Theta_e
321 320 320 322 324 326 323 323 323 322 318 313 312 312 313 313 313 314 312 314 314 314 315 314 311 311 310 315 315 315 317 319 322 328 328 332 342 342 346 344 346 349 345 347 349 351 350
318 319 321 323 325 327 326 322 323 323 319 314 311 312 313 313 313 314 313 314 315 316 315 313 311 311 312 316 312 316 320 317 326 323 323 328 332 336 342 341 343 340 336 337 342 350 350
318 319 322 324 326 327 326 325 322 323 322 316 311 312 314 314 313 313 314 315 316 316 318 315 311 311 313 314 315 318 325 325 324 321 320 321 325 338 341 341 335 334 333 335 335 343 349
319 321 324 326 327 327 327 327 324 322 323 320 312 312 313 314 313 313 315 316 316 317 316 311 310 310 315 314 316 318 319 319 321 322 321 321 326 335 340 336 335 343 337 338 340 338 344
321 323 324 325 326 327 327 327 327 323 322 322 316 312 313 314 314 314 316 316 316 316 317 314 312 318 318 314 320 320 320 321 321 321 323 322 330 334 337 339 341 338 344 341 344 343 345
323 324 324 325 325 326 327 327 327 327 322 322 316 313 312 314 314 314 317 316 315 314 318 314 312 322 318 321 320 320 320 318 318 320 324 326 330 334 335 341 347 344 346 345 345 342 345
325 325 326 326 327 327 327 327 327 327 326 323 320 313 312 314 314 316 316 316 318 318 318 319 317 320 320 319 318 318 318 318 318 321 324 328 331 331 333 337 338 341 342 343 339 333 342
327 327 328 328 328 328 328 328 328 327 327 324 322 314 312 314 314 317 316 319 317 317 319 316 316 318 318 319 318 317 317 318 318 322 324 327 329 331 332 333 335 338 340 337 336 331 336
329 329 329 329 328 326 327 328 328 327 326 323 323 317 312 314 313 318 317 318 316 316 319 316 316 319 319 319 319 317 317 317 319 321 324 326 327 331 331 332 333 336 340 338 338 333 337
330 330 330 328 328 326 328 328 327 325 325 323 323 319 312 314 315 317 318 316 316 316 320 318 319 319 318 319 319 317 317 318 319 321 322 325 325 329 331 331 332 334 334 335 337 337 340
330 329 330 329 328 328 327 327 327 325 325 323 322 320 313 314 315 317 318 316 316 315 319 318 319 317 317 318 317 317 317 318 320 321 321 323 324 325 329 330 330 331 331 333 334 337 339
329 329 330 329 329 329 328 328 327 326 324 323 322 317 314 315 315 315 317 316 316 322 320 318 319 319 318 318 317 316 317 318 318 319 320 321 319 323 325 326 327 328 329 330 331 335 338
329 330 329 329 329 329 329 328 327 326 323 322 320 313 315 315 317 317 317 318 322 322 319 318 318 318 319 319 318 318 318 319 319 319 319 319 319 320 321 323 324 325 328 328 330 333 335
328 329 331 330 329 329 328 328 327 326 323 319 315 315 316 315 316 317 317 322 323 320 319 318 318 318 319 319 319 318 319 318 318 319 319 319 318 319 320 321 323 324 325 326 328 330 332
328 330 332 331 330 328 328 328 327 325 322 316 313 317 316 316 316 316 320 323 322 320 318 319 319 319 320 320 320 319 320 320 320 321 321 319 319 319 320 321 322 324 324 325 326 328 330
329 329 331 331 331 328 327 326 327 324 322 314 315 319 319 317 317 317 322 319 320 317 317 318 320 320 320 320 320 320 320 319 320 320 320 321 321 320 320 321 321 323 325 324 325 327 328
329 330 331 330 328 327 326 326 327 325 322 313 316 321 319 317 317 319 322 321 319 316 317 320 320 320 321 322 321 321 320 319 319 320 320 321 321 320 320 321 322 322 323 324 325 326 327
329 330 330 328 327 327 327 326 326 325 322 314 318 323 319 318 320 320 321 321 315 318 317 318 319 320 321 321 321 321 321 321 317 319 322 322 322 322 321 322 321 323 325 325 326 328 328
329 330 328 327 327 327 328 327 325 326 322 314 320 322 319 317 322 321 319 319 317 318 318 319 319 319 319 321 322 321 320 317 318 321 322 322 322 322 322 322 323 323 323 324 325 327 329
331 329 327 327 328 329 326 326 325 325 323 313 320 324 320 318 317 321 320 319 318 316 317 318 318 319 320 320 321 321 320 318 317 320 314 318 323 323 323 324 324 324 323 323 325 325 325
329 327 327 328 328 329 325 325 325 325 323 312 319 322 318 322 320 320 320 320 319 318 318 318 320 320 320 320 319 320 320 319 318 316 319 321 324 324 322 322 321 322 322 322 323 325 327
328 328 328 328 328 328 325 324 324 325 324 311 319 320 317 319 318 320 315 320 319 318 319 319 320 319 319 319 319 319 319 320 321 319 320 320 324 323 323 321 321 321 321 321 321 323 329
329 329 328 328 329 326 325 325 323 324 324 313 317 317 317 318 320 320 320 320 319 318 317 318 318 318 318 317 316 315 316 316 317 319 320 321 322 323 322 322 321 322 322 321 323 327 329
329 329 329 328 328 327 325 325 324 324 325 312 312 316 317 320 320 321 319 319 319 319 318 315 316 317 315 313 313 313 314 314 315 315 315 320 321 320 320 321 322 322 332 331 331 331 335
327 328 328 326 325 325 323 324 324 325 324 318 310 312 316 318 319 319 318 318 316 316 316 315 314 314 312 314 314 314 315 316 317 316 316 315 318 317 318 319 319 319 327 329 331 330 334
326 325 326 326 324 324 323 324 323 325 324 321 310 312 315 318 318 317 318 317 318 318 316 315 315 314 315 315 315 317 315 316 317 318 316 315 316 318 317 315 315 327 328 328 330 331 335
324 324 322 322 322 322 322 323 323 323 322 319 309 313 313 317 315 314 317 318 317 316 317 316 317 317 316 319 319 316 316 317 316 317 320 318 318 316 316 317 317 325 325 327 331 332 328
323 321 321 321 321 320 320 322 322 320 318 315 310 313 312 318 314 313 313 314 315 315 317 316 317 317 317 318 323 317 316 317 319 319 319 318 318 317 317 317 317 322 324 329 323 323 327
322 323 321 319 319 320 321 321 319 317 316 311 310 313 312 313 315 313 312 313 315 316 316 316 318 316 316 321 321 316 316 318 317 319 318 317 316 320 316 322 322 322 322 319 318 319 322
Wind_Speed
22 23 23 24 27 29 27 27 22 19 18 18 20 20 20 19 19 16 12 10 10 8 9 9 8 6 3 2 2 1 13 16 16 12 11 12 12 7 5 2 6 2 5 4 1 6 8
20 21 22 23 26 28 29 25 25 21 18 18 19 19 19 18 18 16 13 9 9 9 7 6 6 3 2 4 2 6 14 18 12 9 9 9 8 6 3 2 4 2 5 3 3 8 5
24 24 25 26 27 28 28 27 24 23 20 19 20 20 19 18 18 16 12 9 8 6 6 4 1 2 1 2 6 11 12 10 10 8 7 9 6 8 4 5 1 1 5 5 7 8 5
23 23 23 24 25 27 28 29 27 24 22 20 21 21 19 18 18 14 10 9 7 4 3 3 1 3 2 5 9 14 11 10 8 5 4 7 6 8 7 1 5 7 4 4 5 10 5
23 24 25 25 26 26 28 28 27 25 24 22 21 21 19 18 18 13 9 9 4 4 2 4 3 4 8 8 7 10 11 8 8 5 3 8 8 9 8 11 10 9 10 10 7 6 5
25 26 27 27 27 27 27 27 28 26 24 23 21 21 20 19 17 9 7 8 5 4 3 2 4 4 8 11 9 10 10 11 8 10 9 11 10 9 11 12 13 12 13 15 6 4 8
27 27 28 29 28 28 27 27 27 26 24 23 22 20 17 16 15 4 6 4 2 1 3 5 1 2 9 6 10 10 11 8 8 10 9 12 10 14 16 14 6 6 9 8 8 1 5
28 28 29 29 29 29 28 26 25 26 25 22 21 19 18 15 11 0 4 2 4 2 3 3 5 4 3 7 12 11 12 12 11 11 8 8 14 9 3 4 9 7 11 8 7 2 4
28 29 31 31 30 31 28 24 25 26 25 22 21 19 18 15 5 1 2 0 5 4 5 3 3 4 5 9 9 14 15 8 11 10 14 11 5 10 11 11 11 11 10 7 6 5 5
27 30 32 32 32 31 28 24 25 25 24 20 20 20 17 12 3 2 2 4 6 3 5 7 8 6 6 5 7 9 10 8 7 12 9 9 9 12 10 11 10 14 9 5 10 7 11
27 29 31 30 31 30 29 26 26 26 22 19 19 19 16 8 4 5 6 4 5 2 5 6 9 4 6 7 14 7 10 8 8 9 8 7 11 10 12 11 9 10 5 9 9 13 16
26 28 28 31 30 28 28 28 27 26 21 20 18 18 13 4 3 8 5 4 1 7 4 8 7 9 11 7 4 10 10 5 4 6 8 3 2 7 12 7 11 4 8 10 8 12 13
26 27 28 29 29 27 28 29 27 26 22 20 18 14 7 2 4 9 3 2 6 6 4 9 10 11 10 8 8 12 12 10 5 9 9 8 11 5 5 11 9 11 12 8 11 11 13
27 27 27 27 27 27 28 29 27 24 22 20 16 7 2 3 7 6 2 6 7 2 3 4 6 9 8 5 5 7 10 8 3 4 5 8 11 13 11 13 9 16 16 10 14 13 14
27 27 27 28 24 27 28 28 25 22 21 19 12 4 4 5 6 3 6 8 2 3 2 8 9 12 8 6 2 6 1 4 3 3 4 5 4 3 5 7 9 11 13 15 16 8 10
28 26 28 25 21 22 25 26 23 21 20 19 6 4 1 4 2 1 6 2 2 1 2 5 8 4 11 6 9 9 7 2 1 3 5 2 4 4 7 7 7 11 8 10 9 14 14
25 23 25 21 19 18 21 25 22 20 19 17 1 5 3 4 0 6 7 3 5 3 3 2 4 7 5 7 3 5 3 5 3 0 3 4 7 10 8 10 7 9 11 10 11 13 11
22 21 20 18 15 17 20 23 25 20 17 13 2 4 4 4 7 3 6 4 1 4 2 4 5 7 4 4 4 3 6 4 5 3 3 1 5 5 7 6 1 5 7 8 10 14 10
18 19 17 15 15 17 20 21 24 19 17 14 6 3 3 5 5 7 5 7 2 5 1 3 4 3 2 4 3 6 6 4 5 0 1 1 6 8 8 9 5 6 2 4 8 10 12
18 14 13 14 18 17 18 19 20 19 15 10 4 4 5 6 4 7 9 9 8 3 5 5 7 5 5 4 3 6 7 4 4 3 3 3 3 9 6 8 5 8 6 1 9 9 14
12 11 15 17 19 18 18 17 17 18 12 7 4 2 3 5 7 7 7 11 11 6 3 4 5 3 4 5 5 5 4 7 5 2 1 3 6 5 2 3 2 2 5 6 8 8 8
16 16 18 18 19 17 18 16 16 15 13 7 5 5 3 4 4 8 7 10 11 7 4 5 4 5 3 2 3 7 5 5 1 2 2 2 3 5 9 4 7 10 11 10 11 10 9
21 21 21 21 20 20 19 17 16 15 11 5 6 7 5 5 9 9 11 10 11 11 4 3 8 5 4 6 6 6 4 5 5 1 2 3 3 6 13 6 8 13 15 15 10 5 9
25 23 25 25 23 20 21 17 17 15 14 14 10 5 6 7 9 11 6 11 13 8 10 9 6 4 5 8 7 5 5 5 3 2 3 4 6 4 9 4 15 3 6 3 8 5 5
26 24 24 22 20 19 20 17 18 17 16 17 14 10 5 7 11 8 10 11 14 14 14 12 7 7 12 9 6 6 7 6 4 2 0 4 6 4 7 11 14 8 5 3 5 11 5
24 23 24 23 23 22 21 22 21 19 18 21 18 17 6 6 10 5 14 19 13 12 11 11 10 9 7 5 3 6 5 4 5 6 1 4 6 7 6 12 14 10 8 4 1 11 6
28 28 27 26 26 25 24 24 24 25 23 24 16 17 7 3 5 9 11 15 11 12 8 15 11 7 5 2 4 5 5 2 5 5 5 7 6 11 11 11 7 5 3 3 9 2 11
31 30 30 30 29 27 25 24 22 23 24 24 20 18 10 4 3 6 5 11 13 12 9 15 8 6 6 4 3 3 4 4 4 2 4 6 5 6 8 13 17 7 5 5 6 9 12
32 32 31 28 26 27 26 26 22 22 24 23 15 19 15 6 1 6 8 12 10 4 10 17 3 12 4 4 2 3 3 4 4 4 3 4 5 6 4 4 4 4 5 2 5 10 10
Wind_Direction
16 14 13 12 12 12 8 7 4 356 354 355 355 353 350 344 340 338 334 331 327 325 322 318 311 304 338 255 54 311 160 158 158 157 175 181 187 195 210 154 157 176 68 108 96 139 170
13 12 11 11 10 9 8 4 4 1 355 353 353 351 348 343 339 336 330 332 328 324 331 306 299 286 15 226 157 124 148 155 161 162 179 185 203 210 192 188 260 347 309 306 244 160 159
10 10 9 8 7 7 5 5 1 0 354 349 349 349 348 343 340 334 329 330 334 327 332 342 292 241 170 12 155 140 137 157 179 185 202 208 219 210 185 171 101 132 360 254 235 206 196
6 4 3 3 3 1 0 1 359 357 352 348 348 348 348 340 337 332 329 334 330 336 10 15 84 129 88 156 148 153 152 152 161 178 191 205 198 222 235 166 179 156 261 252 157 194 184
2 0 360 359 357 357 358 358 357 354 351 348 346 345 345 340 338 331 330 337 333 319 344 26 111 149 125 148 144 170 159 158 151 160 175 166 179 223 201 212 184 201 191 229 152 179 159
1 357 354 353 351 350 351 353 355 353 348 347 344 344 344 340 336 327 334 334 323 316 312 46 149 194 157 147 150 160 166 147 157 148 135 165 202 211 222 214 196 205 215 179 194 156 216
356 354 351 348 346 344 343 345 348 349 347 342 343 342 345 339 337 323 350 0 322 195 258 306 93 355 136 160 162 169 178 175 168 191 182 192 211 212 201 224 333 163 232 201 130 121 259
353 351 349 346 343 340 336 334 342 346 343 342 340 341 343 340 341 223 36 21 44 320 281 272 249 254 203 155 153 165 169 187 195 197 184 179 222 198 13 188 225 213 179 193 164 173 273
349 350 350 348 346 341 338 335 340 346 343 342 341 341 344 345 350 183 137 65 355 353 245 132 185 175 155 168 154 157 175 187 201 194 203 215 189 134 208 194 212 222 224 191 238 178 235
347 348 349 353 349 351 350 347 344 347 343 341 342 339 343 354 52 220 208 301 343 333 230 125 168 148 165 188 151 161 174 175 194 205 198 227 123 195 201 220 223 219 215 239 231 245 233
342 346 346 351 347 350 350 351 349 347 342 342 338 335 338 339 233 175 215 309 326 251 202 145 141 152 178 235 130 167 180 188 186 171 212 158 194 196 210 205 219 241 161 222 225 229 254
338 338 341 344 345 345 346 345 346 345 342 340 337 333 332 323 204 192 195 317 261 239 135 146 148 177 178 179 128 147 166 165 118 166 219 132 165 226 229 169 211 249 205 215 229 247 235
330 332 336 340 338 341 340 342 345 345 341 341 337 333 335 159 168 173 184 205 222 266 151 148 157 183 182 156 130 172 171 165 174 175 181 185 194 166 220 182 194 210 207 205 217 219 240
322 325 329 332 333 334 337 337 342 344 339 341 340 348 45 136 151 167 195 225 248 125 141 133 155 175 166 168 124 158 167 155 128 294 153 204 186 201 184 229 198 207 220 234 215 228 221
315 320 324 325 324 327 328 333 342 345 340 343 343 113 79 102 141 148 222 225 87 146 146 157 159 173 149 157 183 165 95 87 74 349 317 182 159 167 214 213 235 183 228 244 280 256 278
309 316 321 320 320 325 328 332 340 345 342 343 356 153 189 150 122 176 236 1 161 358 206 191 171 256 166 157 191 196 176 63 101 13 271 79 188 174 151 200 213 271 255 200 229 246 233
309 311 319 322 327 327 331 332 341 343 345 343 351 217 226 172 341 217 233 98 143 102 240 279 150 137 123 136 166 150 131 102 13 227 250 263 263 140 188 209 201 191 229 241 267 225 238
309 314 315 319 322 324 328 330 337 343 345 350 304 230 207 183 226 226 199 182 185 135 133 109 78 77 101 130 121 115 134 46 5 283 212 50 274 214 161 76 280 291 297 269 226 217 245
314 312 320 319 319 317 324 329 330 343 342 348 308 275 241 188 239 196 146 152 98 177 34 139 106 56 117 121 141 139 138 92 39 255 265 79 228 212 183 163 186 233 167 260 262 282 244
314 316 321 310 313 319 328 324 330 334 328 332 292 233 190 215 272 262 182 177 150 93 88 72 109 120 130 119 40 153 139 103 71 75 5 231 234 279 321 25 359 173 198 261 284 245 236
319 315 307 310 311 313 318 321 326 332 325 323 259 215 302 198 198 219 209 180 173 157 124 158 143 182 170 150 163 160 159 146 120 117 223 278 240 258 293 302 291 261 252 255 262 290 284
316 311 309 309 312 309 310 311 315 321 315 294 280 269 221 254 204 217 182 201 196 142 183 161 189 137 146 207 298 173 173 223 85 137 199 227 187 263 242 231 253 261 259 250 259 263 261
312 306 306 304 300 296 298 298 301 306 291 257 266 265 277 181 206 214 196 175 176 148 81 124 135 149 150 97 87 89 87 96 105 238 172 227 216 237 247 163 270 251 242 240 259 260 272
305 303 302 304 296 293 298 291 290 287 274 238 242 241 250 235 226 215 182 181 168 177 144 137 145 176 113 130 114 119 119 121 132 116 269 216 227 241 257 210 244 261 58 334 271 248 233
301 300 301 300 299 295 297 288 286 287 261 235 234 218 238 255 225 190 193 160 132 130 133 136 117 120 148 160 171 165 169 181 146 75 298 270 253 233 251 233 249 190 176 273 255 235 217
296 299 298 299 298 294 288 289 280 273 255 233 226 217 214 276 225 240 184 171 154 135 137 124 116 141 180 213 187 225 183 149 174 155 176 197 251 250 208 254 253 60 71 47 243 241 55
286 290 291 290 288 286 285 284 274 258 243 224 216 208 199 213 251 194 185 174 166 165 149 154 153 161 195 159 210 221 171 322 196 204 180 188 219 227 229 244 245 71 3 105 226 61 337
289 289 290 290 290 292 290 283 267 255 242 214 199 192 189 228 256 198 172 159 157 170 165 143 157 198 187 173 183 199 236 173 206 110 212 226 232 211 242 246 241 10 187 231 348 326 332
287 288 292 292 292 288 283 277 259 248 238 200 191 193 187 207 295 176 175 159 165 176 129 169 42 160 146 117 178 238 205 166 210 200 204 234 252 321 266 38 63 33 56 27 333 306 322